TimeCDT,TemperatureF,Dew PointF,Humidity,Sea Level PressureIn,VisibilityMPH,Wind Direction,Wind SpeedMPH,Gust SpeedMPH,PrecipitationIn,Events,Conditions,WindDirDegrees,DateUTC
12:15 AM,60.8,51.8,72,30.29,10.0,ENE,3.5,-,N/A,,Clear,70,2011-10-09 05:15:00
12:35 AM,60.8,51.8,72,30.28,10.0,East,4.6,-,N/A,,Clear,80,2011-10-09 05:35:00
12:55 AM,59.0,51.8,77,30.28,10.0,ENE,4.6,-,N/A,,Clear,70,2011-10-09 05:55:00
1:15 AM,57.2,50.0,77,30.28,10.0,ENE,3.5,-,N/A,,Clear,70,2011-10-09 06:15:00
1:35 AM,57.2,50.0,77,30.28,10.0,NE,4.6,-,N/A,,Clear,50,2011-10-09 06:35:00
1:55 AM,57.2,48.2,72,30.28,10.0,NE,5.8,-,N/A,,Clear,50,2011-10-09 06:55:00
2:15 AM,57.2,50.0,77,30.27,10.0,ENE,9.2,-,N/A,,Clear,70,2011-10-09 07:15:00
2:35 AM,59.0,48.2,67,30.26,10.0,East,9.2,-,N/A,,Clear,80,2011-10-09 07:35:00
2:55 AM,59.0,48.2,67,30.26,10.0,East,10.4,-,N/A,,Clear,80,2011-10-09 07:55:00
3:15 AM,59.0,48.2,67,30.26,10.0,ENE,6.9,-,N/A,,Clear,70,2011-10-09 08:15:00
3:35 AM,59.0,48.2,67,30.26,10.0,ENE,5.8,-,N/A,,Clear,70,2011-10-09 08:35:00
3:55 AM,59.0,48.2,67,30.27,10.0,ENE,6.9,-,N/A,,Clear,60,2011-10-09 08:55:00
4:15 AM,59.0,48.2,67,30.27,10.0,ENE,6.9,-,N/A,,Clear,60,2011-10-09 09:15:00
4:35 AM,60.8,48.2,63,30.27,10.0,ENE,8.1,-,N/A,,Clear,70,2011-10-09 09:35:00
4:55 AM,60.8,46.4,59,30.27,10.0,ENE,8.1,-,N/A,,Clear,70,2011-10-09 09:55:00
5:15 AM,59.0,46.4,63,30.27,10.0,ENE,6.9,-,N/A,,Clear,60,2011-10-09 10:15:00
5:35 AM,60.8,46.4,59,30.28,10.0,ENE,6.9,-,N/A,,Clear,60,2011-10-09 10:35:00
5:55 AM,59.0,46.4,63,30.28,10.0,ENE,8.1,-,N/A,,Clear,60,2011-10-09 10:55:00
6:35 AM,57.2,46.4,67,30.29,10.0,ENE,8.1,-,N/A,,Clear,60,2011-10-09 11:35:00
7:15 AM,57.2,46.4,67,30.30,10.0,ENE,5.8,-,N/A,,Clear,60,2011-10-09 12:15:00
7:35 AM,57.2,46.4,67,30.30,10.0,ENE,8.1,-,N/A,,Clear,60,2011-10-09 12:35:00
8:15 AM,59.0,46.4,63,30.30,10.0,NE,6.9,-,N/A,,Clear,50,2011-10-09 13:15:00
8:35 AM,60.8,46.4,59,30.30,10.0,NE,9.2,-,N/A,,Clear,50,2011-10-09 13:35:00
8:55 AM,60.8,48.2,63,30.31,10.0,ENE,10.4,-,N/A,,Clear,60,2011-10-09 13:55:00
9:15 AM,62.6,48.2,59,30.31,10.0,ENE,11.5,-,N/A,,Clear,60,2011-10-09 14:15:00
9:35 AM,62.6,50.0,63,30.31,10.0,East,10.4,17.3,N/A,,Clear,80,2011-10-09 14:35:00
9:55 AM,64.4,50.0,59,30.31,10.0,East,12.7,-,N/A,,Clear,80,2011-10-09 14:55:00
10:15 AM,64.4,50.0,59,30.31,10.0,ENE,11.5,-,N/A,,Clear,70,2011-10-09 15:15:00
10:35 AM,64.4,51.8,64,30.31,10.0,East,9.2,-,N/A,,Clear,80,2011-10-09 15:35:00
11:35 AM,64.4,53.6,68,30.29,10.0,ENE,9.2,-,N/A,,Partly Cloudy,70,2011-10-09 16:35:00
11:55 AM,64.4,53.6,68,30.28,10.0,East,11.5,-,N/A,,Clear,80,2011-10-09 16:55:00
12:15 PM,64.4,53.6,68,30.27,10.0,East,9.2,-,N/A,,Scattered Clouds,80,2011-10-09 17:15:00
12:35 PM,66.2,55.4,68,30.26,10.0,East,11.5,16.1,N/A,,Mostly Cloudy,80,2011-10-09 17:35:00
12:55 PM,68.0,53.6,60,30.24,10.0,ENE,11.5,-,N/A,,Mostly Cloudy,60,2011-10-09 17:55:00
1:15 PM,69.8,55.4,60,30.23,10.0,ENE,15.0,18.4,N/A,,Partly Cloudy,70,2011-10-09 18:15:00
1:35 PM,71.6,55.4,57,30.21,10.0,ENE,10.4,19.6,N/A,,Clear,60,2011-10-09 18:35:00
2:15 PM,71.6,55.4,57,30.20,10.0,ENE,11.5,20.7,N/A,,Scattered Clouds,70,2011-10-09 19:15:00
2:35 PM,69.8,55.4,60,30.19,10.0,ENE,11.5,-,N/A,,Overcast,70,2011-10-09 19:35:00
2:55 PM,71.6,55.4,57,30.18,10.0,ENE,10.4,-,N/A,,Scattered Clouds,70,2011-10-09 19:55:00
3:15 PM,71.6,55.4,57,30.18,10.0,ENE,12.7,18.4,N/A,,Clear,60,2011-10-09 20:15:00
3:35 PM,71.6,55.4,57,30.17,10.0,ENE,12.7,17.3,N/A,,Clear,60,2011-10-09 20:35:00
3:55 PM,71.6,55.4,57,30.17,10.0,ENE,10.4,17.3,N/A,,Clear,60,2011-10-09 20:55:00
4:15 PM,73.4,55.4,53,30.17,10.0,ENE,16.1,21.9,N/A,,Clear,70,2011-10-09 21:15:00
4:35 PM,71.6,53.6,53,30.16,10.0,NE,10.4,-,N/A,,Clear,50,2011-10-09 21:35:00
4:55 PM,69.8,53.6,56,30.17,10.0,NE,8.1,-,N/A,,Clear,50,2011-10-09 21:55:00
5:15 PM,69.8,53.6,56,30.16,10.0,NNE,6.9,-,N/A,,Clear,30,2011-10-09 22:15:00
5:35 PM,69.8,55.4,60,30.16,10.0,NNE,5.8,-,N/A,,Clear,30,2011-10-09 22:35:00
5:55 PM,69.8,55.4,60,30.16,10.0,ENE,5.8,-,N/A,,Clear,60,2011-10-09 22:55:00
6:35 PM,66.2,53.6,64,30.17,10.0,East,9.2,-,N/A,,Overcast,90,2011-10-09 23:35:00
6:55 PM,68.0,53.6,60,30.17,10.0,East,10.4,-,N/A,,Mostly Cloudy,80,2011-10-09 23:55:00
7:35 PM,68.0,53.6,60,30.18,10.0,ENE,8.1,16.1,N/A,,Overcast,70,2011-10-10 00:35:00
7:55 PM,66.2,53.6,64,30.18,10.0,East,8.1,-,N/A,,Overcast,80,2011-10-10 00:55:00
8:15 PM,66.2,53.6,64,30.18,10.0,East,8.1,-,N/A,,Mostly Cloudy,90,2011-10-10 01:15:00
8:35 PM,66.2,53.6,64,30.18,10.0,East,5.8,-,N/A,,Scattered Clouds,80,2011-10-10 01:35:00
8:55 PM,66.2,53.6,64,30.18,10.0,East,6.9,-,N/A,,Mostly Cloudy,80,2011-10-10 01:55:00
9:35 PM,64.4,53.6,68,30.18,10.0,East,6.9,-,N/A,,Mostly Cloudy,80,2011-10-10 02:35:00
9:55 PM,64.4,53.6,68,30.18,10.0,East,5.8,-,N/A,,Clear,80,2011-10-10 02:55:00
10:15 PM,64.4,53.6,68,30.19,10.0,ENE,8.1,-,N/A,,Partly Cloudy,70,2011-10-10 03:15:00
10:35 PM,64.4,53.6,68,30.18,10.0,ENE,6.9,-,N/A,,Mostly Cloudy,70,2011-10-10 03:35:00
10:55 PM,64.4,53.6,68,30.18,10.0,ENE,5.8,-,N/A,,Mostly Cloudy,70,2011-10-10 03:55:00
11:15 PM,64.4,53.6,68,30.17,10.0,ENE,5.8,-,N/A,,Overcast,70,2011-10-10 04:15:00
11:35 PM,64.4,53.6,68,30.17,10.0,NE,5.8,-,N/A,,Overcast,50,2011-10-10 04:35:00
11:55 PM,64.4,53.6,68,30.16,10.0,ENE,6.9,-,N/A,,Overcast,60,2011-10-10 04:55:00